[[{"header":{"parameterUnit":"m.s-1","parameterCategory":1,"la1":30.2991,"la2":30.254,"lo1":-89.0895,"lo2":-89.0444,"dy":0.0017,"dx":0.0017,"nx":28,"ny":28,"refTime":"2023-08-20T09:00:00:Z","depth":0,"parameterNumber":2,"parameterNumberName":"U-component_of_WINDS"},"data":[0,0,0,0,0,0,0,0,0,0,0,0,0,0,0,0,0,0,0,0,0,0,0,0,0,0,0,0,0,0,0,0,0,0,0,0,0,0,0,0,0,0,0,0,0,0,0,0,0,0,0,0,0,0,0,0,0,0,-2.9596,-2.9595,0,-2.9547,-2.9546,-2.9546,-2.941,-2.9407,-2.9404,-2.9401,-2.9355,-2.9356,-2.9358,0,0,0,0,0,0,0,0,0,0,0,0,0,-2.9576,-2.9577,-2.9596,-2.9595,-2.9595,-2.9547,-2.9546,-2.9546,-2.9411,-2.9407,-2.9403,-2.94,-2.9354,-2.9356,-2.9358,0,0,0,0,0,0,0,0,0,0,0,0,0,-2.9562,-2.9578,-2.9596,-2.9521,-2.9514,-2.9547,-2.9546,-2.9546,-2.9411,-2.9407,-2.9402,-2.9398,-2.9354,-2.9356,-2.9358,-2.9461,0,0,-2.9365,-2.9366,0,0,0,0,0,0,0,0,-2.9563,-2.9563,-2.9533,-2.9527,-2.9519,-2.948,-2.9522,-2.9517,-2.9412,-2.9451,-2.9401,-2.9396,-2.94,-2.9399,-2.9399,-2.9459,-2.9457,-2.9365,-2.9367,-2.9368,-2.9368,0,0,0,0,0,0,0,-2.9564,-2.9564,-2.9577,-2.9533,-2.9524,-2.9492,-2.9485,-2.9521,-2.9451,-2.9447,-2.9437,-2.9433,-2.9396,-2.9397,-2.9397,-2.9456,-2.9365,-2.9367,-2.9369,-2.937,-2.9596,-2.9601,0,0,0,0,0,0,-2.9575,-2.9566,-2.9578,-2.9575,-2.953,-2.9496,-2.9488,-2.9497,-2.945,-2.9439,-2.9437,-2.9427,-2.9396,-2.9395,-2.9395,-2.9511,-2.9368,-2.937,-2.9371,-2.9592,-2.9597,-2.9602,0,0,0,0,0,0,-2.9575,-2.9578,-2.958,-2.9568,-2.9566,-2.9501,-2.9512,-2.9498,-2.95,-2.9442,-2.943,-2.9451,-2.9392,-2.9392,-2.9445,-2.9507,-2.9371,-2.9373,-2.9586,-2.9594,-2.96,-2.9744,0,0,0,0,0,0,-2.9575,-2.9579,-2.9616,-2.957,-2.9567,-2.963,-2.9516,-2.9501,-2.9503,-2.949,-2.9452,-2.9442,-2.9389,-2.9442,-2.9447,-2.9508,-2.9375,-2.958,-2.9589,-2.9598,-2.9733,-2.9755,-2.9774,0,0,0,0,0,-2.9575,-2.9659,-2.9618,-2.9621,-2.9612,-2.9634,-2.9633,-2.9568,-2.9509,-2.9546,-2.951,-2.9443,-2.95,-2.9449,-2.9453,-2.9516,-2.9576,-2.9587,-2.9597,-2.9724,-2.9751,-2.9773,0,0,0,0,0,0,-2.9716,-2.9652,-2.9606,-2.9677,-2.9662,-2.9611,-2.9656,-2.9599,-2.9601,-2.9588,-2.951,-2.9503,-2.9567,-2.9547,-2.9491,-2.9612,-2.9527,-2.9539,-2.9622,-2.9647,-2.9667,-2.967,-2.9377,0,0,0,0,0,-2.9755,-2.9777,-2.9721,-2.979,-2.9784,-2.9722,-2.9729,-2.9681,-2.9663,-2.9656,-2.9623,-2.9609,-2.9623,-2.9634,-2.9644,-2.9731,-2.972,-2.9776,-2.9796,-2.9813,-2.9823,-2.9867,-2.989,-2.9637,-2.9637,-2.9637,0,0,-2.9837,-2.9805,-2.9823,-2.9817,-2.9799,-2.9825,-2.9717,-2.9749,-2.9767,-2.9661,-2.9708,-2.9684,-2.9663,-2.9733,-2.9762,-2.9718,-2.9891,-2.9826,-2.984,-2.9841,-2.988,-2.9904,-2.9925,-2.9644,-2.9643,-2.9642,0,0,-2.9998,-2.9976,-3.003,-3.0014,-2.9989,-2.9947,-2.9961,-2.9918,-2.9897,-2.9944,-2.9864,-2.9886,-2.9913,-2.9901,-2.9898,-3.0056,-2.9994,-3.0062,-3.0166,-3.0209,-3.0229,-3.0246,-3.0302,-3.0323,-3.0073,-3.0073,-3.0073,0,-3.0102,-3.0136,-3.0066,-3.0102,-3.0101,-3.0005,-3.006,-3.0049,-3.0029,-3.0031,-2.9982,-3.0013,-2.9993,-3.0058,-3.0096,-3.0098,-3.0111,-3.0064,-3.0232,-3.0248,-3.0264,-3.0315,-3.0336,-3.0081,-3.008,-3.008,-3.0079,0,-3.0266,-3.0291,-3.0338,-3.0319,-3.0324,-3.037,-3.0307,-3.0321,-3.0273,-3.0237,-3.0286,-3.0258,-3.026,-3.0273,-3.0227,-3.0332,-3.0305,-3.0246,-3.0158,-3.0297,-3.0344,-3.0364,-3.0093,-3.009,-3.0088,-3.0086,0,0,-3.0512,-3.0454,-3.0472,-3.0462,-3.0427,-3.0446,-3.0488,-3.0489,-3.0502,-3.0493,-3.0525,-3.0551,-3.0495,-3.0492,-3.0445,-3.0483,-3.0608,-3.0418,-3.0416,-3.0453,-3.0722,-3.0765,-3.079,-3.0568,-3.0572,-3.0575,-3.0723,0,-3.0663,-3.0729,-3.0667,-3.0746,-3.0768,-3.0678,-3.0714,-3.0697,-3.0665,-3.0681,-3.0646,-3.0664,-3.059,-3.0587,-3.0621,-3.0586,-3.0661,-3.0575,-3.0598,-3.06,-3.0605,-3.0814,-3.0861,-3.1002,-3.0741,-3.0744,-3.0746,0,-3.0847,-3.0843,-3.0924,-3.0883,-3.089,-3.0924,-3.092,-3.0936,-3.0916,-3.0889,-3.0887,-3.0829,-3.0868,-3.0784,-3.0837,-3.078,-3.0787,-3.0771,-3.0775,-3.0773,-3.068,-3.0817,-3.1045,-3.1066,-3.0775,-3.0773,-3.0771,0,-3.1017,-3.1033,-3.1083,-3.1078,-3.1032,-3.1058,-3.104,-3.1015,-3.102,-3.1017,-3.102,-3.1023,-3.1024,-3.1028,-3.0973,-3.0917,-3.1033,-3.0945,-3.1013,-3.1014,-3.104,-3.1038,-3.1271,-3.1047,-3.1047,-3.1047,-3.1046,0,-3.119,-3.1243,-3.1158,-3.1189,-3.1246,-3.1175,-3.1233,-3.1207,-3.1186,-3.121,-3.1134,-3.1159,-3.1085,-3.1103,-3.106,-3.111,-3.1112,-3.1092,-3.108,-3.1098,-3.11,-3.11,-3.1088,-3.1052,-3.1051,-3.105,-3.1049,0,-3.1389,-3.1335,-3.1383,-3.1335,-3.1325,-3.1369,-3.1329,-3.1356,-3.1319,-3.1351,-3.1355,-3.1298,-3.1315,-3.126,-3.1269,-3.124,-3.1313,-3.1286,-3.1319,-3.131,-3.1381,-3.1374,-3.1619,-3.1648,-3.1408,-3.1411,-3.1413,0,-3.1502,-3.154,-3.1497,-3.1507,-3.1493,-3.1511,-3.1515,-3.1448,-3.1455,-3.1435,-3.1465,-3.1476,-3.148,-3.1512,-3.1472,-3.1478,-3.1449,-3.1535,-3.145,-3.1467,-3.1449,-3.1447,-3.145,-3.1552,-3.1555,-3.1557,-3.1559,0,-3.1709,-3.168,-3.1687,-3.1686,-3.1693,-3.1689,-3.168,-3.1694,-3.1622,-3.1634,-3.165,-3.1653,-3.1662,-3.1673,-3.1671,-3.1654,-3.1596,-3.1587,-3.1602,-3.162,-3.1638,-3.1628,-3.1366,-3.1581,-3.1579,-3.1577,-3.1576,-3.1575,-3.1867,-3.1896,-3.187,-3.1881,-3.1867,-3.1861,-3.1883,-3.1849,-3.186,-3.1861,-3.1821,-3.1845,-3.1824,-3.1815,-3.1805,-3.1823,-3.1783,-3.1807,-3.1812,-3.1819,-3.183,-3.1637,-3.1823,-3.1822,-3.1821,-3.1821,-3.182,0,-3.2068,-3.2046,-3.2058,-3.2047,-3.2056,-3.1999,-3.1987,-3.1998,-3.202,-3.2005,-3.2011,-3.2029,-3.204,-3.2001,-3.2007,-3.2029,-3.2002,-3.2033,-3.203,-3.2027,-3.1866,-3.1851,-3.2054,-3.2054,-3.2054,-3.2054,-3.2054,-3.2054,-3.2173,-3.2219,-3.2188,-3.2227,-3.2205,-3.2226,-3.2224,-3.2218,-3.2206,-3.2229,-3.2237,-3.2211,-3.2187,-3.219,-3.2198,-3.2187,-3.2192,-3.2232,-3.2211,-3.2061,-3.2038,-3.2016,-3.2002,-3.2234,-3.2234,-3.237,-3.2371,-3.2372]},{"header":{"parameterUnit":"m.s-1","parameterCategory":1,"la1":30.2991,"la2":30.254,"lo1":-89.0895,"lo2":-89.0444,"dy":0.0017,"dx":0.0017,"nx":28,"ny":28,"refTime":"2023-08-20T09:00:00:Z","depth":0,"parameterNumber":3,"parameterNumberName":"V-component_of_WINDS"},"data":[0,0,0,0,0,0,0,0,0,0,0,0,0,0,0,0,0,0,0,0,0,0,0,0,0,0,0,0,0,0,0,0,0,0,0,0,0,0,0,0,0,0,0,0,0,0,0,0,0,0,0,0,0,0,0,0,0,0,-0.1025,-0.1025,0,-0.1096,-0.1097,-0.1098,-0.1168,-0.1168,-0.1169,-0.117,-0.1242,-0.1243,-0.1245,0,0,0,0,0,0,0,0,0,0,0,0,0,-0.0945,-0.0946,-0.1025,-0.1025,-0.1026,-0.1096,-0.1097,-0.1098,-0.1167,-0.1169,-0.117,-0.1171,-0.1242,-0.1243,-0.1245,0,0,0,0,0,0,0,0,0,0,0,0,0,-0.0995,-0.0947,-0.1024,-0.1069,-0.1074,-0.1096,-0.1097,-0.1098,-0.1167,-0.1169,-0.117,-0.1171,-0.1242,-0.1243,-0.1245,-0.1228,0,0,-0.125,-0.1251,0,0,0,0,0,0,0,0,-0.0992,-0.0997,-0.1062,-0.1066,-0.1072,-0.1124,-0.1096,-0.1142,-0.1167,-0.1132,-0.117,-0.1172,-0.1202,-0.1207,-0.1217,-0.1231,-0.1234,-0.125,-0.1251,-0.1252,-0.1252,0,0,0,0,0,0,0,-0.0988,-0.0995,-0.1053,-0.1063,-0.1069,-0.1085,-0.1094,-0.1105,-0.1158,-0.1135,-0.114,-0.1148,-0.1205,-0.1216,-0.122,-0.1235,-0.125,-0.1251,-0.1252,-0.1253,-0.1237,-0.1236,0,0,0,0,0,0,-0.0978,-0.0991,-0.1051,-0.1055,-0.1034,-0.1086,-0.1095,-0.1106,-0.1158,-0.1168,-0.1147,-0.1151,-0.1212,-0.1218,-0.1222,-0.1205,-0.1252,-0.1253,-0.1254,-0.1239,-0.1237,-0.1236,0,0,0,0,0,0,-0.0976,-0.0983,-0.1048,-0.1025,-0.1034,-0.1085,-0.1097,-0.1107,-0.1118,-0.1167,-0.1177,-0.1148,-0.1214,-0.122,-0.1226,-0.1209,-0.1254,-0.1255,-0.124,-0.1238,-0.1236,-0.1171,0,0,0,0,0,0,-0.0974,-0.0982,-0.0976,-0.1024,-0.1035,-0.105,-0.1096,-0.1107,-0.112,-0.1127,-0.1171,-0.118,-0.1215,-0.1223,-0.1227,-0.1212,-0.1257,-0.1242,-0.1239,-0.1237,-0.1175,-0.1167,-0.116,0,0,0,0,0,-0.0971,-0.0955,-0.0976,-0.0982,-0.103,-0.1049,-0.1056,-0.1097,-0.1119,-0.1113,-0.1145,-0.1178,-0.121,-0.1223,-0.1229,-0.1213,-0.1243,-0.124,-0.1237,-0.1178,-0.1168,-0.116,0,0,0,0,0,0,-0.0904,-0.0962,-0.0986,-0.0986,-0.1012,-0.1061,-0.1056,-0.1086,-0.1106,-0.1111,-0.1161,-0.117,-0.117,-0.1192,-0.1206,-0.1199,-0.1231,-0.1229,-0.1184,-0.1176,-0.1168,-0.1163,-0.1258,0,0,0,0,0,-0.0889,-0.0901,-0.0951,-0.0946,-0.0958,-0.1004,-0.1014,-0.1044,-0.1073,-0.1085,-0.1117,-0.1143,-0.1159,-0.1169,-0.1186,-0.1178,-0.1188,-0.117,-0.1163,-0.1157,-0.1154,-0.115,-0.1143,-0.1225,-0.1225,-0.1225,0,0,-0.0859,-0.0892,-0.0897,-0.0933,-0.0957,-0.0967,-0.1013,-0.1022,-0.103,-0.1086,-0.1093,-0.1117,-0.115,-0.1149,-0.115,-0.1167,-0.1133,-0.1153,-0.1147,-0.1148,-0.1146,-0.1138,-0.1131,-0.1223,-0.1223,-0.1224,0,0,-0.081,-0.0836,-0.0834,-0.0857,-0.0893,-0.0923,-0.0922,-0.0967,-0.0985,-0.0993,-0.1035,-0.1044,-0.1071,-0.1092,-0.1107,-0.1063,-0.1094,-0.1067,-0.1028,-0.1024,-0.1018,-0.1012,-0.0996,-0.0989,-0.1064,-0.1064,-0.1064,0,-0.0768,-0.0785,-0.0829,-0.0836,-0.085,-0.0901,-0.0899,-0.0918,-0.0957,-0.0966,-0.0985,-0.1018,-0.1044,-0.1048,-0.1037,-0.1047,-0.1047,-0.1062,-0.1015,-0.101,-0.1005,-0.099,-0.0984,-0.1061,-0.1061,-0.1061,-0.1062,0,-0.0731,-0.0742,-0.0736,-0.0773,-0.0787,-0.0788,-0.0832,-0.0841,-0.0868,-0.0896,-0.0903,-0.0935,-0.096,-0.0963,-0.099,-0.097,-0.0979,-0.1006,-0.104,-0.0993,-0.098,-0.0975,-0.1056,-0.1057,-0.1058,-0.1059,0,0,-0.0643,-0.0703,-0.07,-0.0716,-0.0758,-0.0768,-0.0771,-0.0795,-0.0801,-0.0825,-0.0829,-0.0849,-0.0874,-0.089,-0.092,-0.0916,-0.0878,-0.0943,-0.0945,-0.093,-0.0857,-0.0836,-0.0829,-0.0899,-0.0898,-0.0897,-0.0854,0,-0.06,-0.061,-0.0649,-0.0647,-0.0657,-0.0705,-0.0708,-0.0733,-0.0759,-0.0771,-0.08,-0.0813,-0.0845,-0.0855,-0.0853,-0.0883,-0.0864,-0.0887,-0.0902,-0.0902,-0.0892,-0.0822,-0.0801,-0.0758,-0.0849,-0.0848,-0.0847,0,-0.0552,-0.0573,-0.0572,-0.0612,-0.0618,-0.062,-0.0644,-0.0655,-0.0685,-0.0704,-0.0721,-0.0754,-0.0759,-0.079,-0.0798,-0.0812,-0.082,-0.0836,-0.0835,-0.0838,-0.0872,-0.0823,-0.0746,-0.0739,-0.084,-0.084,-0.0841,0,-0.0487,-0.0515,-0.0518,-0.053,-0.0578,-0.0578,-0.0598,-0.0628,-0.064,-0.0661,-0.0668,-0.0689,-0.0701,-0.0716,-0.0753,-0.0772,-0.0756,-0.079,-0.0771,-0.077,-0.0766,-0.0765,-0.0689,-0.0771,-0.0771,-0.0771,-0.0771,0,-0.0435,-0.0432,-0.0489,-0.0491,-0.0488,-0.0533,-0.0529,-0.0553,-0.058,-0.0586,-0.0628,-0.0633,-0.0683,-0.0693,-0.0722,-0.0723,-0.0728,-0.0743,-0.0751,-0.0739,-0.0737,-0.0745,-0.0749,-0.0769,-0.077,-0.077,-0.077,0,-0.0362,-0.04,-0.0406,-0.045,-0.0461,-0.0457,-0.0495,-0.0497,-0.0525,-0.0533,-0.0537,-0.0581,-0.0595,-0.0634,-0.0658,-0.0677,-0.067,-0.0685,-0.066,-0.0665,-0.0644,-0.0645,-0.0569,-0.0561,-0.0648,-0.0648,-0.0647,0,-0.0326,-0.0325,-0.0369,-0.0376,-0.0394,-0.0405,-0.0417,-0.046,-0.047,-0.0502,-0.0501,-0.0518,-0.0535,-0.0555,-0.0588,-0.0606,-0.0622,-0.0594,-0.0625,-0.0613,-0.0621,-0.062,-0.062,-0.0587,-0.0586,-0.0585,-0.0584,0,-0.0259,-0.0277,-0.0293,-0.0314,-0.0326,-0.0345,-0.0366,-0.0369,-0.0418,-0.0427,-0.0442,-0.0454,-0.0478,-0.0495,-0.0518,-0.0537,-0.0568,-0.0574,-0.0571,-0.0559,-0.0544,-0.0551,-0.0641,-0.0576,-0.0577,-0.0577,-0.0578,-0.0578,-0.0204,-0.0204,-0.0235,-0.025,-0.027,-0.0288,-0.0293,-0.0321,-0.0334,-0.0357,-0.0381,-0.0393,-0.0421,-0.0456,-0.0473,-0.0482,-0.0499,-0.0494,-0.0492,-0.049,-0.0485,-0.0543,-0.0486,-0.0487,-0.0487,-0.0487,-0.0487,0,-0.0138,-0.0159,-0.0173,-0.02,-0.0212,-0.024,-0.0264,-0.0272,-0.0282,-0.0305,-0.032,-0.0336,-0.0352,-0.0386,-0.0405,-0.0405,-0.042,-0.0409,-0.0409,-0.0413,-0.0469,-0.047,-0.0397,-0.0397,-0.0397,-0.0397,-0.0397,-0.0397,-0.0105,-0.0107,-0.0129,-0.0141,-0.0163,-0.0175,-0.0186,-0.0203,-0.0222,-0.0238,-0.0251,-0.0273,-0.0301,-0.0321,-0.0337,-0.0346,-0.0351,-0.0335,-0.0349,-0.0401,-0.0409,-0.0417,-0.0419,-0.0335,-0.0335,-0.0292,-0.0291,-0.0291]}]]